logo
Rechercher aéroport 
image banner adimage banner adimage banner ad
image banner ad

2B9 - Post Mills

Situé à Post Mills, United States

ICAO - 2B9, IATA -

Données fournies par Airmate  

Information générale

Coordonnées: N43°53'1" W72°15'7"
Élévation : 696 feet MSL.
Variation magnétique : -16° East
Voir autres Aéroports à Vermont

Données opérationnelles

Special qualification required
Heure actuelle UTC:
Heure actuelle locale:
Météo à : KLEB - Lebanon Muni ( 29 km )
METAR: KLEB 171453Z 23007KT 10SM CLR 23/14 A3011 RMK AO2 SLP190 T02330144 58023
TAF: KLEB 171121Z 1712/1812 18005KT P6SM SKC FM180900 16001KT 5SM BR BKN250
Voir NOTAMs / SUP AIP / TFR affectant cet aéroport [VIEW]
Fréquences de communication: [VIEW]

Pistes:

Identifiant RWYQFULongueur (ft)Largeur (ft)SurfaceLDA (ft)
04290080GRASS
22290080GRASS
0533°230080GRASS
23213°230080GRASS

Coordonnées de l'aéroport

Adresse: Post Mills United States

Vue satellite de 2B9